Walnut Ridge, AR

2:46 PM CDT on October 22, 2017 (GMT -0500)
Walnut Ridge Regional

Weather History for KARG - January, 2012

Change the Weather History Date:

Wednesday, January 25, 2012

  Actual Average Record
Temperature  
Mean Temperature 42 °F -  
Max Temperature 44 °F 43 °F 60 °F (2005)
Min Temperature 39 °F 28 °F 17 °F (2003)
Degree Days  
Heating Degree Days 24    
Moisture  
Dew Point 39 °F    
Average Humidity 91    
Maximum Humidity 100    
Minimum Humidity 76    
Precipitation  
Precipitation 0.37 in - - ()
Sea Level Pressure  
Sea Level Pressure 30.10 in    
Wind  
Wind Speed 12 mph (NE)    
Max Wind Speed 21 mph    
Max Gust Speed 26 mph    
Visibility 8 miles    
Events      
Averages and records for this station are not official NWS values.
T = Trace of Precipitation, MM = Missing Value Source: NWS Daily Summary

Daily Weather History Graph

Daily Weather History Graph

Search for Another Location

Airport or City:

Trip Planner

Search our weather history database for the weather conditions in past years. The results will help you decide how hot, cold, wet, or windy it might be!

Date:

Astronomy

Jan. 25, 2012 Rise Set
Actual Time 7:09 AM CST 5:22 PM CST
Civil Twilight 6:42 AM CST 5:49 PM CST
Nautical Twilight 6:11 AM CST 6:21 PM CST
Astronomical Twilight 5:40 AM CST 6:51 PM CST
Moon 8:15 AM CST (1/25) 8:08 PM CST (1/25)
Length of Visible Light 11h 07m
Length of Day
10h 12m
Waxing Crescent, 7% of the Moon is Illuminated
Jan 25
Waxing Crescent
Jan 30
First Quarter
Feb 7
Full
Feb 14
Last Quarter
Feb 21
New

Hourly Weather History & Observations

Time (CST) Temp. Windchill Dew Point Humidity Pressure Visibility Wind Dir Wind Speed Gust Speed Precip Events Conditions
12:15 AM 42.8 °F 37.5 °F 35.6 °F 76% 30.22 in 10.0 mi NNE 9.2 mph - N/A   Clear
12:35 AM 42.8 °F 38.0 °F 35.6 °F 76% 30.21 in 10.0 mi NNE 8.1 mph - N/A   Clear
12:55 AM 42.8 °F 38.0 °F 35.6 °F 76% 30.20 in 10.0 mi NNE 8.1 mph - N/A   Scattered Clouds
1:15 AM 42.8 °F 37.0 °F 35.6 °F 76% 30.20 in 10.0 mi NNE 10.4 mph - N/A   Mostly Cloudy
1:35 AM 42.8 °F 36.6 °F 37.4 °F 81% 30.19 in 10.0 mi NNE 11.5 mph - N/A   Mostly Cloudy
1:55 AM 42.8 °F 37.0 °F 37.4 °F 81% 30.20 in 10.0 mi NE 10.4 mph - 0.01 in   Overcast
2:35 AM 41.0 °F 36.4 °F 37.4 °F 87% 30.21 in 10.0 mi NNE 6.9 mph - 0.03 in   Overcast
2:55 AM 41.0 °F 37.1 °F 37.4 °F 87% 30.23 in 9.0 mi NE 5.8 mph - 0.07 in   Overcast
3:15 AM 41.0 °F 35.8 °F 37.4 °F 87% 30.20 in 10.0 mi NE 8.1 mph - 0.03 in   Overcast
3:35 AM 39.2 °F 33.0 °F 37.4 °F 93% 30.20 in 10.0 mi NE 9.2 mph - 0.08 in   Overcast
3:55 AM 39.2 °F 32.0 °F 37.4 °F 93% 30.16 in 8.0 mi NE 11.5 mph - 0.10 in   Overcast
4:15 AM 39.2 °F 35.9 °F 37.4 °F 93% 30.20 in 8.0 mi NE 4.6 mph - 0.02 in   Overcast
4:35 AM 39.2 °F 34.2 °F 37.4 °F 93% 30.20 in 8.0 mi North 6.9 mph - 0.05 in   Mostly Cloudy
4:55 AM 39.2 °F 30.8 °F 37.4 °F 93% 30.15 in 7.0 mi NE 15.0 mph - 0.12 in   Overcast
5:15 AM 39.2 °F 31.6 °F 37.4 °F 93% 30.18 in 6.0 mi NNE 12.7 mph - 0.02 in   Overcast
5:35 AM 39.2 °F 31.2 °F 37.4 °F 93% 30.17 in 10.0 mi NNE 13.8 mph - 0.03 in   Mostly Cloudy
5:55 AM 39.2 °F 30.2 °F 37.4 °F 93% 30.14 in 10.0 mi NNE 17.3 mph - 0.03 in   Mostly Cloudy
6:15 AM 41.0 °F 33.9 °F 39.2 °F 93% 30.17 in 10.0 mi NNE 12.7 mph - N/A   Overcast
6:35 AM 39.2 °F 32.0 °F 37.4 °F 93% 30.16 in 10.0 mi NE 11.5 mph - N/A   Mostly Cloudy
6:55 AM 39.2 °F 31.2 °F 37.4 °F 93% 30.15 in 10.0 mi NE 13.8 mph - N/A   Mostly Cloudy
7:15 AM 39.2 °F 31.2 °F 37.4 °F 93% 30.16 in 9.0 mi ENE 13.8 mph - N/A   Overcast
7:35 AM 39.2 °F 30.2 °F 37.4 °F 93% 30.14 in 8.0 mi ENE 17.3 mph - N/A   Overcast
7:55 AM 39.2 °F 29.6 °F 37.4 °F 93% 30.15 in 7.0 mi NE 19.6 mph - N/A   Overcast
8:15 AM 39.2 °F 30.5 °F 37.4 °F 93% 30.15 in 5.0 mi NE 16.1 mph - N/A   Overcast
8:35 AM 39.2 °F 32.5 °F 37.4 °F 93% 30.19 in 6.0 mi NE 10.4 mph - N/A   Overcast
8:55 AM 39.2 °F 31.2 °F 37.4 °F 93% 30.18 in 5.0 mi NE 13.8 mph - N/A   Overcast
9:15 AM 39.2 °F 31.2 °F 37.4 °F 93% 30.19 in 1.0 mi NNE 13.8 mph 21.9 mph N/A   Overcast
9:35 AM 39.2 °F 31.2 °F 37.4 °F 93% 30.18 in 2.5 mi NNE 13.8 mph - 0.01 in   Overcast
9:55 AM 39.2 °F 30.8 °F 37.4 °F 93% 30.18 in 1.0 mi NNE 15.0 mph - 0.02 in   Overcast
10:15 AM 39.2 °F 30.8 °F 37.4 °F 93% 30.17 in 2.0 mi NE 15.0 mph - 0.02 in   Overcast
10:35 AM 39.2 °F 30.2 °F 37.4 °F 93% 30.17 in 5.0 mi NE 17.3 mph - 0.02 in   Overcast
10:55 AM 39.2 °F 30.8 °F 37.4 °F 93% 30.16 in 6.0 mi NE 15.0 mph - 0.02 in   Overcast
11:15 AM 39.2 °F 29.8 °F 37.4 °F 93% 30.15 in 7.0 mi NE 18.4 mph 23.0 mph N/A   Overcast
11:35 AM 39.2 °F 31.2 °F 37.4 °F 93% 30.13 in 9.0 mi NE 13.8 mph 20.7 mph N/A   Overcast
11:55 AM 39.2 °F 29.3 °F 37.4 °F 93% 30.12 in 10.0 mi NE 20.7 mph 26.5 mph N/A   Overcast
12:15 PM 39.2 °F 30.8 °F 37.4 °F 93% 30.11 in 2.5 mi NE 15.0 mph - N/A   Overcast
12:35 PM 39.2 °F 29.8 °F 37.4 °F 93% 30.10 in 5.0 mi NE 18.4 mph - N/A   Overcast
12:55 PM 39.2 °F 29.8 °F 37.4 °F 93% 30.09 in 8.0 mi NE 18.4 mph - N/A   Overcast
1:15 PM 39.2 °F 30.5 °F 37.4 °F 93% 30.08 in 8.0 mi ENE 16.1 mph - N/A   Overcast
1:35 PM 41.0 °F 33.5 °F 39.2 °F 93% 30.05 in 9.0 mi ENE 13.8 mph 19.6 mph N/A   Overcast
1:55 PM 41.0 °F 33.5 °F 39.2 °F 93% 30.05 in 8.0 mi ENE 13.8 mph - N/A   Overcast
2:15 PM 42.8 °F 35.8 °F 39.2 °F 87% 30.03 in 9.0 mi ENE 13.8 mph - N/A   Overcast
2:35 PM 42.8 °F 35.4 °F 39.2 °F 87% 30.02 in 10.0 mi ENE 15.0 mph - N/A   Overcast
2:55 PM 42.8 °F 35.1 °F 39.2 °F 87% 30.01 in 10.0 mi ENE 16.1 mph - N/A   Overcast
3:35 PM 42.8 °F 36.2 °F 42.8 °F 100% 29.98 in 10.0 mi ENE 12.7 mph - N/A   Overcast
3:55 PM 42.8 °F 36.6 °F 41.0 °F 93% 29.97 in 10.0 mi ENE 11.5 mph - N/A   Overcast
4:35 PM 42.8 °F 36.2 °F 42.8 °F 100% 29.96 in 9.0 mi NE 12.7 mph - N/A   Overcast
4:55 PM 42.8 °F 35.4 °F 42.8 °F 100% 29.95 in 9.0 mi NE 15.0 mph - N/A   Overcast
5:15 PM 42.8 °F 35.8 °F 41.0 °F 93% 29.95 in 9.0 mi NE 13.8 mph - N/A   Overcast
5:35 PM 42.8 °F 36.2 °F 42.8 °F 100% 29.95 in 10.0 mi NE 12.7 mph - N/A   Overcast
5:55 PM 42.8 °F 34.5 °F 41.0 °F 93% 29.91 in 8.0 mi ENE 18.4 mph - N/A   Overcast
6:15 PM 42.8 °F 35.8 °F 41.0 °F 93% 29.92 in 7.0 mi ENE 13.8 mph - N/A   Overcast
6:35 PM 42.8 °F 35.8 °F 42.8 °F 100% 29.92 in 10.0 mi East 13.8 mph - N/A   Overcast
6:55 PM 42.8 °F 35.8 °F 42.8 °F 100% 29.93 in 10.0 mi ENE 13.8 mph - N/A   Overcast
7:15 PM 44.6 °F 40.7 °F 41.0 °F 87% 29.94 in 10.0 mi ENE 6.9 mph - N/A   Overcast
7:35 PM 44.6 °F 40.7 °F 42.8 °F 93% 29.93 in 10.0 mi ENE 6.9 mph - N/A   Overcast
7:55 PM 44.6 °F 40.7 °F 42.8 °F 93% 29.94 in 7.0 mi NNE 6.9 mph - N/A   Overcast
8:15 PM 42.8 °F 37.0 °F 41.0 °F 93% 29.93 in 7.0 mi NNE 10.4 mph - N/A   Overcast
8:35 PM 42.8 °F 39.3 °F 41.0 °F 93% 29.94 in 5.0 mi NNE 5.8 mph - N/A   Overcast
8:55 PM 42.8 °F 37.0 °F 41.0 °F 93% 29.93 in 5.0 mi NE 10.4 mph - 0.01 in   Overcast
9:15 PM 42.8 °F 36.2 °F 41.0 °F 93% 29.90 in 5.0 mi NE 12.7 mph - 0.05 in   Overcast
9:35 PM 42.8 °F 36.6 °F 39.2 °F 87% 29.88 in 5.0 mi NNE 11.5 mph - 0.07 in   Overcast
9:55 PM 42.8 °F 35.4 °F 41.0 °F 93% 29.87 in 5.0 mi NE 15.0 mph - 0.07 in   Overcast
10:15 PM 42.8 °F 36.2 °F 41.0 °F 93% 29.88 in 5.0 mi North 12.7 mph - N/A   Overcast
10:35 PM 41.0 °F 32.5 °F 39.2 °F 93% 29.87 in 5.0 mi North 17.3 mph - N/A   Overcast
10:55 PM 41.0 °F 33.5 °F 39.2 °F 93% 29.86 in 7.0 mi North 13.8 mph - N/A   Overcast
11:15 PM 41.0 °F 31.9 °F 39.2 °F 93% 29.85 in 7.0 mi NNW 19.6 mph - N/A   Overcast
11:35 PM 41.0 °F 33.9 °F 39.2 °F 93% 29.88 in 10.0 mi NNW 12.7 mph - N/A   Overcast
11:55 PM 41.0 °F 34.3 °F 39.2 °F 93% 29.89 in 10.0 mi NNW 11.5 mph - N/A   Overcast